Location: Moy Burn
(57.3833°N, 4.0667°W)
Time: 08:12:55
(UTC+00:00)

USA 267 - Pass Details

Date: 08 August 2020
Orbit: 1102 x 1106 km, 123.0° (Epoch: 18 September)

Event Time Altitude Azimuth Distance (km) Brightness Sun altitude
Rises 21:22:57 0° 66° (ENE) 3,929 6.0 -8.0°
Reaches altitude 10° 21:25:33 10° 72° (ENE) 2,969 5.3 -8.2°
Maximum altitude 21:31:51 47° 146° (SE) 1,425 3.5 -8.8°
Drops below altitude 10° 21:38:08 10° 219° (SW) 2,961 5.4 -9.4°
Sets 21:40:44 0° 225° (SW) 3,917 6.1 -9.6°
